Weather History for Belize, Belize

Change the Weather History Date:

Thursday, November 15, 2012

  Actual Average Record
Temperature  
Mean Temperature 77 °F -  
Max Temperature 83 °F 84 °F 89 °F (2008)
Min Temperature 71 °F 70 °F 66 °F (1999)
Cooling Degree Days 12    
Growing Degree Days 27 (Base 50)    
Moisture  
Dew Point 72 °F    
Average Humidity 82    
Maximum Humidity 100    
Minimum Humidity 62    
Precipitation  
Precipitation 0.16 in 0.24 in - ()
Sea Level Pressure  
Sea Level Pressure 30.03 in    
Wind  
Wind Speed 4 mph ()    
Max Wind Speed 12 mph    
Max Gust Speed -    
Visibility 7.7 miles    
Events Rain    
Averages and records for this station are not official NWS values.
T = Trace of Precipitation, MM = Missing Value Source: Averaged Metar Reports

Daily Weather History Graph

Daily Weather History Graph

Search for Another Location

Airport:

Trip Planner

Search our weather history database for the weather conditions in past years. The results will help you decide how hot, cold, wet, or windy it might be!

Date:

Astronomy

Nov. 15, 2012 Rise Set
Actual Time 5:58 AM CST 5:17 PM CST
Civil Twilight 5:35 AM CST 5:39 PM CST
Nautical Twilight 5:09 AM CST 6:06 PM CST
Astronomical Twilight 4:43 AM CST 6:32 PM CST
Moon 7:44 AM CST (11/15) 7:17 PM CST (11/15)
Length of Visible Light 12h 04m
Length of Day
11h 18m
Waxing Crescent, 5% of the Moon is Illuminated
Nov 15
Waxing Crescent
Nov 20
First Quarter
Nov 28
Full
Dec 6
Last Quarter
Dec 13
New

Hourly Weather History & Observations

Time (CST) Temp. Heat Index Dew Point Humidity Pressure Visibility Wind Dir Wind Speed Gust Speed Precip Events Conditions
12:00 AM 74 °F - 72 °F 91% 30.05 in 12 mi Calm Calm - -   Mostly Cloudy
3:00 AM 73 °F - 72 °F 96% 30.01 in 12 mi Calm Calm - - Rain Light Rain Showers
5:00 AM 71.6 °F - 71.6 °F 100% 30.01 in 6.2 mi NNW 6.9 mph - N/A   Mostly Cloudy
6:00 AM 72 °F - 71 °F 94% 30.02 in 12 mi NW 6.9 mph - -   Partly Cloudy
6:00 AM 71.6 °F - 71.6 °F 100% 30.01 in 6.2 mi NW 6.9 mph - N/A   Mostly Cloudy
7:00 AM 71.6 °F - 71.6 °F 100% 30.04 in 6.2 mi WNW 3.5 mph - N/A   Mostly Cloudy
8:00 AM 73.4 °F - 71.6 °F 94% 30.04 in 6.2 mi WNW 5.8 mph - N/A   Mostly Cloudy
9:00 AM 77 °F - 72 °F 79% 30.07 in 12 mi North 6.9 mph - -   Mostly Cloudy
9:00 AM 77.0 °F - 71.6 °F 83% 30.06 in 6.2 mi North 6.9 mph - N/A   Mostly Cloudy
10:00 AM 80.6 °F 85.4 °F 73.4 °F 79% 30.07 in 6.2 mi West 4.6 mph - N/A   Scattered Clouds
11:00 AM 82.4 °F 88.2 °F 73.4 °F 74% 30.05 in 6.2 mi North 8.1 mph - N/A   Scattered Clouds
11:15 AM - - - N/A% 30.05 in 3.7 mi North 10.4 mph - N/A Rain Heavy Rain Showers
11:40 AM - - - N/A% 30.04 in 6.2 mi Calm Calm - N/A Rain Light Rain Showers
12:00 PM 78 °F - 74 °F 82% 30.05 in 9 mi Calm Calm - - Rain Heavy Rain Showers
12:00 PM 78.8 °F - 73.4 °F 83% 30.04 in 6.2 mi Calm Calm - N/A Rain Heavy Rain Showers
1:00 PM 80.6 °F 85.4 °F 73.4 °F 79% 30.01 in 6.2 mi NNE 4.6 mph - N/A   Scattered Clouds
2:00 PM 78.8 °F - 71.6 °F 78% 30.00 in 6.2 mi NNE 4.6 mph - N/A   Mostly Cloudy
3:00 PM 82 °F - 71 °F 62% 29.99 in 12 mi ENE 6.9 mph - -   Partly Cloudy
3:00 PM 82.4 °F 87.2 °F 71.6 °F 70% 29.98 in 6.2 mi ENE 6.9 mph - N/A   Mostly Cloudy
4:00 PM 78.8 °F - 71.6 °F 78% 29.98 in 6.2 mi NNE 11.5 mph - N/A   Mostly Cloudy
5:00 PM 78.8 °F - 73.4 °F 83% 30.00 in 6.2 mi NNW 3.5 mph - N/A   Mostly Cloudy
6:00 PM 80 °F - 71 °F 67% 30.02 in 12 mi NNE 5.8 mph - -   Partly Cloudy
6:00 PM 80.6 °F 84.6 °F 71.6 °F 74% 30.02 in 6.2 mi NNE 5.8 mph - N/A   Mostly Cloudy
7:00 PM 78.8 °F - 69.8 °F 74% 30.03 in 6.2 mi NE 6.9 mph - N/A   Mostly Cloudy
8:00 PM 78.8 °F - 71.6 °F 78% 30.04 in 6.2 mi NNE 4.6 mph - N/A   Scattered Clouds
9:00 PM 79 °F - 70 °F 68% 30.06 in 12 mi NNE 4.6 mph - -   Scattered Clouds
9:00 PM 78.8 °F - 69.8 °F 74% 30.05 in 6.2 mi NNE 4.6 mph - N/A   Partly Cloudy
10:00 PM 73.4 °F - 71.6 °F 94% 30.04 in - WNW 3.5 mph - N/A   Clear